Flag for Malaysia Weather past 2 weeks in Kuching, Malaysia

Now
91 °F

Broken clouds.


Feels Like: 105 °F
Forecast: 76 / 92 °F
Wind: 7 mph from South

Location: Kuching Airport

Current Time: Sep 20, 2014 at 2:04:06 PM

Latest Report: Sep 20, 2014 at 1:30 PM


Visibility: 5 mi

Pressure: 29.77 "Hg

Humidity: 63%

Dew point: 77 °F

Location of KuchingLocation

Historic Weather in Kuching — Graph

°F

Kuching temperature yesterday

Maximum temperature yesterday: 91 °F (at 11:30 AM)
Minimum temperature yesterday: 77 °F (at 1:30 AM)
Average temperature yesterday: 83 °F

Past Weeks' High & Low Weather Summary

 TemperatureHumidityPressure
High95 °F (Sep 5, 4:00 PM)94% (Sep 6, 2:30 AM)29.95 "Hg (Sep 6, 2:30 AM)
Low72 °F (Sep 6, 11:00 PM)39% (Sep 5, 4:30 PM)29.65 "Hg (Sep 16, 3:30 PM)
Average82 °F79%29.81 "Hg
* Reported Sep 5 1:00 PM — Sep 20 1:00 PM, Kuching, Weather by CustomWeather, © 2014

Note: Actual official high and low records may vary slightly from our data, if they occured in-between our weather recording intervals... More about our weather records

Advertising

Kuching weather history for previous 24 hours

 ConditionsComfort  
Time TempWeatherWind HumidityBarometerVisibility
1:00 PM
Sep 20
91 °FBroken clouds.7 mph63%29.77 "Hg5 mi
12:30 PM91 °FBroken clouds.8 mph63%29.80 "Hg5 mi
12:00 PM90 °FBroken clouds.8 mph63%29.83 "Hg5 mi
11:30 AM88 °FBroken clouds.7 mph70%29.83 "Hg5 mi
11:00 AM88 °FBroken clouds.6 mph66%29.86 "Hg5 mi
10:30 AM86 °FBroken clouds.6 mph70%29.86 "Hg5 mi
10:00 AM84 °FPartly sunny.6 mph74%29.86 "Hg5 mi
9:00 AM81 °FPartly sunny.3 mph84%29.86 "Hg4 mi
8:30 AM79 °FPartly sunny.3 mph89%29.86 "Hg4 mi
8:00 AM77 °FPartly sunny.2 mph94%29.83 "Hg4 mi
7:30 AM75 °FPartly sunny.No wind94%29.83 "Hg5 mi
7:00 AM75 °FPartly sunny.1 mph94%29.83 "Hg5 mi
6:30 AM75 °FPartly sunny.2 mph94%29.80 "Hg4 mi
6:00 AM75 °FPartly cloudy.2 mph94%29.80 "HgN/A
5:30 AM75 °FPartly cloudy.1 mph94%29.80 "HgN/A
5:00 AM75 °FPartly cloudy.2 mph94%29.80 "HgN/A
4:30 AM75 °FPartly cloudy.No wind94%29.80 "HgN/A
4:00 AM75 °FPartly cloudy.3 mph94%29.80 "HgN/A
3:30 AM75 °FPartly cloudy.3 mph94%29.80 "HgN/A
3:00 AM75 °FPartly cloudy.2 mph94%29.80 "HgN/A
2:30 AM75 °FLight rain. Partly cloudy.3 mph94%29.80 "Hg5 mi
2:00 AM77 °FLight rain. Partly cloudy.3 mph89%29.80 "Hg5 mi
1:30 AM77 °FLight rain. Partly cloudy.2 mph89%29.83 "Hg5 mi
1:00 AM77 °FLight rain. Partly cloudy.1 mph89%29.83 "Hg4 mi
12:30 AM77 °FThunderstorms. Partly cloudy.2 mph89%29.86 "Hg4 mi
12:00 AM77 °FThunderstorms. Partly cloudy.No wind89%29.86 "Hg4 mi
11:30 PM
Sep 19
77 °FThunderstorms. Partly cloudy.3 mph89%29.89 "Hg4 mi
11:00 PM79 °FThunderstorms. Partly cloudy.5 mph84%29.89 "Hg4 mi
10:30 PM79 °FThunderstorms. Partly cloudy.5 mph84%29.89 "Hg4 mi
10:00 PM79 °FPartly cloudy.10 mph84%29.89 "Hg5 mi
9:30 PM79 °FPartly cloudy.6 mph84%29.86 "Hg5 mi
9:00 PM79 °FPartly cloudy.5 mph84%29.86 "Hg5 mi
8:30 PM81 °FPassing clouds.3 mph79%29.83 "Hg5 mi
8:00 PM81 °FPassing clouds.5 mph79%29.83 "Hg5 mi
7:30 PM81 °FPassing clouds.5 mph79%29.80 "Hg5 mi
7:00 PM82 °FPartly cloudy.7 mph74%29.80 "Hg5 mi
6:30 PM86 °FBroken clouds.6 mph70%29.80 "Hg4 mi
6:00 PM88 °FBroken clouds.7 mph59%29.77 "Hg5 mi
5:30 PM88 °FPartly sunny.6 mph62%29.74 "Hg4 mi
5:00 PM90 °FBroken clouds.8 mph59%29.74 "Hg5 mi
4:30 PM90 °FBroken clouds.9 mph59%29.71 "Hg5 mi
4:00 PM90 °FBroken clouds.9 mph59%29.71 "Hg5 mi
3:30 PM91 °FBroken clouds.7 mph56%29.74 "Hg5 mi
3:00 PM90 °FBroken clouds.8 mph59%29.74 "Hg5 mi
2:30 PM90 °FBroken clouds.6 mph63%29.77 "Hg5 mi
2:00 PM91 °FBroken clouds.6 mph59%29.77 "Hg5 mi
Weather by CustomWeather, © 2014

See weather overviewHow to use our weather pages